This demonstration page uses our WeatherBlox Daily Observations layout. Learn more.

Left ArrowRight Arrow

Hourly Observations for January 29, 2017

Temp ( °F °C ) Dew Point ( °F °C ) Humidity (%) Winds ( mph kmh ) Pressure ( in mb ) Visibility ( mi km ) Precip ( " mm )
12:59 am 00:59 Clear 41 5 24 -4.4 51 51 SW 9 15 29.84 1010 10 16 0.00 0.00
1:59 am 01:59 Clear 40 4.4 23 -5 51 51 SSW 8 13 29.83 1010 10 16 0.00 0.00
2:59 am 02:59 Clear 39 3.9 24 -4.4 55 55 SSW 8 13 29.82 1010 10 16 0.00 0.00
3:59 am 03:59 Clear 39 3.9 24 -4.4 55 55 SSW 8 13 29.82 1010 10 16 0.00 0.00
4:59 am 04:59 Clear 39 3.9 24 -4.4 55 55 SSW 9 15 29.82 1010 10 16 0.00 0.00
5:59 am 05:59 Clear 39 3.9 25 -3.9 57 57 SW 12 19 29.82 1010 10 16 0.00 0.00
6:59 am 06:59 Clear 38 3.3 25 -3.9 60 60 SW 9 15 29.83 1010 10 16 0.00 0.00
7:59 am 07:59 Partly Cloudy 38 3.3 25 -3.9 60 60 WSW 10 17 29.84 1011 10 16 0.00 0.00
8:59 am 08:59 Partly Cloudy 41 5 25 -3.9 53 53 WSW 12 19 29.85 1011 10 16 0.00 0.00
9:59 am 09:59 Partly Cloudy 44 6.7 26 -3.3 49 49 W 8 13 29.86 1011 10 16 0.00 0.00
10:59 am 10:59 Partly Cloudy 46 7.8 27 -2.8 47 47 W 8 13 29.85 1011 10 16 0.00 0.00
11:59 am 11:59 Partly Cloudy 49 9.4 27 -2.8 43 43 WNW 6 9 29.82 1010 10 16 0.00 0.00
12:59 pm 12:59 Mostly Cloudy 51 10.6 25 -3.9 36 36 VRB 6 9 29.78 1009 10 16 0.00 0.00
1:59 pm 13:59 Mostly Cloudy 54 12.2 25 -3.9 33 33 WNW 8 13 29.76 1008 10 16 0.00 0.00
2:59 pm 14:59 Cloudy 51 10.6 24 -4.4 35 35 NNW 9 15 29.75 1008 10 16 0.00 0.00
3:59 pm 15:59 Cloudy 50 10 24 -4.4 36 36 W 8 13 29.76 1008 10 16 0.00 0.00
4:59 pm 16:59 Cloudy 50 10 26 -3.3 39 39 W 8 13 29.78 1008 10 16 0.00 0.00
5:59 pm 17:59 Mostly Cloudy 48 8.9 26 -3.3 42 42 W 10 17 29.78 1009 10 16 0.00 0.00
6:59 pm 18:59 Partly Cloudy 45 7.2 27 -2.8 49 49 SW 3 6 29.79 1009 10 16 0.00 0.00
7:59 pm 19:59 Mostly Clear 39 3.9 28 -2.2 65 65 SSW 5 7 29.79 1009 10 16 0.00 0.00
8:59 pm 20:59 Mostly Clear 38 3.3 28 -2.2 68 68 S 5 7 29.78 1009 10 16 0.00 0.00
9:59 pm 21:59 Cloudy 42 5.6 31 -0.6 65 65 S 5 7 29.78 1009 10 16 0.00 0.00
10:59 pm 22:59 Cloudy 43 6.1 31 -0.6 63 63 SW 5 7 29.78 1008 10 16 0.00 0.03
11:59 pm 23:59 Cloudy with Light Rain 44 6.7 32 0 63 63 Calm 29.76 1008 10 16 0.00 0.03

Powered by AerisWeather